| time (UTC) | temp F | wind direction | speed knots | gust knots | rain 1hr in | rain 24hr in | rain mn in | humidity % | barometer mb |
| 20260507232829 | 40 | 146 | 1.7 | 3.5 | 0.00 | 0.10 | 0.00 | 97 | 1017.2 |
| 20260507231830 | 41 | 166 | 1.7 | 4.3 | 0.00 | 0.10 | 0.00 | 97 | 1017.0 |
| 20260507225828 | 42 | 145 | 1.7 | 4.3 | 0.00 | 0.10 | 0.10 | 93 | 1017.2 |
| 20260507224827 | 42 | 145 | 1.7 | 5.2 | 0.00 | 0.10 | 0.10 | 93 | 1017.2 |
| 20260507223828 | 41 | 154 | 1.7 | 5.2 | 0.00 | 0.10 | 0.10 | 94 | 1017.3 |
| 20260507214827 | 43 | 138 | 2.6 | 6.1 | 0.00 | 0.10 | 0.10 | 90 | 1017.2 |
| 20260507213827 | 44 | 130 | 2.6 | 6.1 | 0.00 | 0.10 | 0.10 | 90 | 1017.2 |
| 20260507211828 | 45 | 127 | 3.5 | 7.0 | 0.00 | 0.10 | 0.10 | 90 | 1017.1 |
| 20260507210827 | 46 | 118 | 3.5 | 7.0 | 0.00 | 0.10 | 0.10 | 90 | 1017.1 |
| 20260507205827 | 46 | 114 | 3.5 | 7.8 | 0.00 | 0.10 | 0.10 | 83 | 1017.1 |
| 20260507204829 | 46 | 114 | 3.5 | 7.8 | 0.00 | 0.10 | 0.10 | 83 | 1017.1 |
| 20260507203827 | 48 | 110 | 3.5 | 7.8 | 0.00 | 0.10 | 0.10 | 83 | 1017.1 |
| 20260507201827 | 49 | 108 | 4.3 | 9.6 | 0.00 | 0.10 | 0.10 | 82 | 1017.0 |
| 20260507194828 | 50 | 105 | 4.3 | 10.4 | 0.00 | 0.10 | 0.10 | 69 | 1016.8 |
| 20260507191827 | 52 | 114 | 5.2 | 10.4 | 0.00 | 0.10 | 0.10 | 69 | 1016.6 |
| 20260507190827 | 53 | 118 | 5.2 | 10.4 | 0.00 | 0.10 | 0.10 | 69 | 1016.6 |
| 20260507185828 | 54 | 120 | 5.2 | 12.2 | 0.00 | 0.10 | 0.10 | 64 | 1016.2 |
| 20260507152827 | 56 | 81 | 7.8 | 13.9 | 0.00 | 0.12 | 0.10 | 63 | 1016.5 |
| 20260507134827 | 56 | 77 | 7.0 | 8.7 | 0.00 | 0.10 | 0.08 | 64 | 1016.6 |
| 20260507130827 | 55 | 42 | 4.3 | 8.7 | 0.00 | 0.10 | 0.08 | 64 | 1016.6 |
| 20260507125828 | 54 | 27 | 5.2 | 7.8 | 0.02 | 0.10 | 0.08 | 79 | 1016.8 |
| 20260507123827 | 55 | 52 | 4.3 | 7.8 | 0.00 | 0.08 | 0.06 | 63 | 1016.8 |
| 20260507120827 | 54 | 28 | 2.6 | 7.0 | 0.00 | 0.08 | 0.06 | 63 | 1016.8 |
| 20260507113827 | 54 | 25 | 3.5 | 10.4 | 0.00 | 0.12 | 0.10 | 71 | 1016.6 |
| 20260507112827 | 54 | 24 | 4.3 | 10.4 | 0.00 | 0.12 | 0.10 | 71 | 1016.6 |
| 20260507111827 | 54 | 24 | 4.3 | 10.4 | 0.00 | 0.12 | 0.10 | 71 | 1016.6 |
| 20260507104827 | 54 | 81 | 2.6 | 7.8 | 0.00 | 0.07 | 0.05 | 67 | 1016.6 |
| 20260507103827 | 54 | 65 | 2.6 | 7.8 | 0.00 | 0.07 | 0.05 | 67 | 1016.6 |
| 20260507081827 | 52 | 58 | 2.6 | 7.0 | 0.00 | 0.06 | 0.04 | 77 | 1016.7 |